This is the latest recevied weather packets stored in our database for station/object KM8V-8. If no packets are shown the sender has not sent any weather packets the latest 10 day(s).
| Time | Temp. | Humidity | Pressure | Rain* | Wind** | Luminosity | Snow |
|---|---|---|---|---|---|---|---|
| 1778088919 | 11.11° C | 73% | 1011.8 hPa | 0 mm | - | 578 W/m² | - |
| 1778088616 | 11.11° C | 72% | 1011.8 hPa | 0 mm | - | 670 W/m² | - |
| 1778088316 | 11.11° C | 72% | 1011.9 hPa | 0 mm | - | 742 W/m² | - |
| 1778088016 | 11.11° C | 73% | 1012 hPa | 0 mm | - | 835 W/m² | - |
| 1778087716 | 11.11° C | 72% | 1012.1 hPa | 0 mm | - | 719 W/m² | - |
| 1778087416 | 11.11° C | 72% | 1012.2 hPa | 0 mm | - | 723 W/m² | - |
| 1778087117 | 11.11° C | 73% | 1012.2 hPa | 0 mm | - | 969 W/m² | - |
| 1778086816 | 10.56° C | 74% | 1012.1 hPa | 0 mm | - | 737 W/m² | - |
| 1778086517 | 10.56° C | 75% | 1012 hPa | 0 mm | - | 828 W/m² | - |
| 1778086223 | 10.56° C | 73% | 1011.9 hPa | 0 mm | - | 991 W/m² | - |
| 1778085923 | 10.56° C | 72% | 1011.8 hPa | 0 mm | - | 922 W/m² | - |
| 1778085623 | 10.56° C | 74% | 1011.7 hPa | 0 mm | - | 921 W/m² | - |
| 1778085323 | 10.56° C | 73% | 1011.7 hPa | 0 mm | - | 915 W/m² | - |
| 1778085018 | 10.56° C | 75% | 1011.7 hPa | 0 mm | - | 912 W/m² | - |
| 1778084717 | 10.56° C | 75% | 1011.6 hPa | 0 mm | - | 894 W/m² | - |
| 1778084417 | 10.56° C | 76% | 1011.7 hPa | 0 mm | - | 862 W/m² | - |
| 1778084117 | 10.56° C | 76% | 1011.7 hPa | 0 mm | - | 797 W/m² | - |
| 1778083824 | 10.56° C | 77% | 1011.7 hPa | 0 mm | - | 845 W/m² | - |
| 1778083518 | 10.56° C | 78% | 1011.6 hPa | 0 mm | - | 819 W/m² | - |
| 1778083219 | 10.56° C | 79% | 1011.5 hPa | 0 mm | - | 856 W/m² | - |
| 1778082918 | 10.56° C | 79% | 1011.5 hPa | 0 mm | - | 680 W/m² | - |
| 1778082618 | 10.56° C | 79% | 1011.6 hPa | 0 mm | - | 827 W/m² | - |
| 1778082323 | 10° C | 82% | 1011.5 hPa | 0 mm | - | 855 W/m² | - |
| 1778082016 | 10° C | 80% | 1011.4 hPa | 0 mm | - | 842 W/m² | - |
| 1778081716 | 10° C | 81% | 1011.3 hPa | 0 mm | - | 847 W/m² | - |
* Rain latest hour (hover to see other rain measurements)
** Current wind speed in m/s (hover to see current wind gust speed)